Location: Miles
(41.4492°N, 81.6087°W)
Time: 16:17:12
(UTC+00:00)

A-11 Canister half - Pass Details

Date: 20 September 2024
Orbit: 1515 x 1685 km, 47.2° (Epoch: 14 October)

Event Time Altitude Azimuth Distance (km) Brightness Sun altitude
Rises 05:02:11 0° 297° (WNW) 4,668 11.8 -47.5°
Reaches altitude 10° 05:05:15 10° 294° (WNW) 3,679 11.2 -47.5°
Enters shadow 05:07:23 19° 290° (WNW) 3,024 10.6 -47.6°
